Location: Chagrin Falls Park
(41.4139°N, 81.3865°W)
Time: 17:12:38
(UTC+00:00)

X-37B - Pass Details

Date: 01 August 2021
Orbit: 381 x 393 km, 45.0° (Epoch: 29 August)

Event Time Altitude Azimuth Distance (km) Brightness Sun altitude
Exits shadow 09:40:49 10° 244° (WSW) 1,397 2.7 -7.4°
Reaches altitude 10° 09:40:50 10° 244° (WSW) 1,392 2.7 -7.4°
Maximum altitude 09:43:57 80° 159° (SSE) 391 0.6 -6.9°
Drops below altitude 10° 09:47:06 10° 71° (ENE) 1,399 5.1 -6.4°
Sets 09:49:11 0° 70° (ENE) 2,255 6.6 -6.1°
